Time,TemperatureF,DewpointF,PressureIn,WindDirection,WindDirectionDegrees,WindSpeedMPH,WindSpeedGustMPH,Humidity,HourlyPrecipIn,Conditions,Clouds,dailyrainin,SolarRadiationWatts/m^2,SoftwareType,DateUTC
2013-01-19 00:22:00,64.0,58.0,-100.00,NNW,345,4.0,15.0,82,0.00,,,0.00,0.000000,,2013-01-19 10:22:00,
2013-01-19 00:32:00,64.0,58.0,-100.00,NNW,345,4.0,15.0,82,0.00,,,0.00,0.000000,,2013-01-19 10:32:00,
2013-01-19 00:42:00,64.0,58.0,-100.00,NNW,345,4.0,15.0,82,0.00,,,0.00,0.000000,,2013-01-19 10:42:00,
2013-01-19 00:52:00,64.0,58.0,-100.00,NNW,345,4.0,15.0,82,0.00,,,0.00,0.000000,,2013-01-19 10:52:00,
2013-01-19 02:48:00,60.0,57.0,-100.00,NNW,342,5.0,13.0,89,0.00,,,0.00,0.000000,,2013-01-19 12:48:00,
2013-01-19 03:22:00,60.0,56.0,-100.00,NNW,336,5.0,13.0,88,0.00,,,-99.99,0.000000,,2013-01-19 13:22:00,
2013-01-19 03:33:00,60.0,56.0,-100.00,NNW,336,5.0,13.0,88,0.00,,,-99.99,0.000000,,2013-01-19 13:33:00,
2013-01-19 03:42:00,60.0,56.0,-100.00,NNW,336,5.0,13.0,88,0.00,,,-99.99,0.000000,,2013-01-19 13:42:00,
2013-01-19 03:52:00,60.0,56.0,-100.00,NNW,336,5.0,13.0,88,0.00,,,-99.99,0.000000,,2013-01-19 13:52:00,
2013-01-19 04:22:00,61.0,56.0,-100.00,NW,326,7.0,22.0,83,0.00,,,0.00,0.000000,,2013-01-19 14:22:00,
2013-01-19 04:33:00,61.0,56.0,-100.00,NW,326,7.0,22.0,83,0.00,,,0.00,0.000000,,2013-01-19 14:33:00,
2013-01-19 04:42:00,61.0,56.0,-100.00,NW,326,7.0,22.0,83,0.00,,,0.00,0.000000,,2013-01-19 14:42:00,
2013-01-19 04:53:00,61.0,56.0,-100.00,NW,326,7.0,22.0,83,0.00,,,0.00,0.000000,,2013-01-19 14:53:00,
2013-01-19 05:22:00,62.0,56.0,-100.00,NNW,328,9.0,23.0,82,0.00,,,0.00,0.000000,,2013-01-19 15:22:00,
2013-01-19 05:33:00,62.0,56.0,-100.00,NNW,328,9.0,23.0,82,0.00,,,0.00,0.000000,,2013-01-19 15:33:00,
2013-01-19 05:43:00,62.0,56.0,-100.00,NNW,328,9.0,23.0,82,0.00,,,0.00,0.000000,,2013-01-19 15:43:00,
2013-01-19 05:53:00,62.0,56.0,-100.00,NNW,328,9.0,23.0,82,0.00,,,0.00,0.000000,,2013-01-19 15:53:00,
2013-01-19 06:23:00,64.0,57.0,-100.00,NW,318,10.0,26.0,79,0.00,,,0.00,0.000000,,2013-01-19 16:23:00,
2013-01-19 06:33:00,64.0,57.0,-100.00,NW,318,10.0,26.0,79,0.00,,,0.00,0.000000,,2013-01-19 16:33:00,
2013-01-19 06:43:00,64.0,57.0,-100.00,NW,318,10.0,26.0,79,0.00,,,0.00,0.000000,,2013-01-19 16:43:00,
2013-01-19 06:53:00,64.0,57.0,-100.00,NW,318,10.0,26.0,79,0.00,,,0.00,0.000000,,2013-01-19 16:53:00,
2013-01-19 07:34:00,64.0,58.0,-100.00,NW,322,10.0,23.0,80,0.00,,,0.00,0.000000,,2013-01-19 17:34:00,
2013-01-19 07:45:00,64.0,58.0,-100.00,NW,322,10.0,23.0,80,0.00,,,0.00,0.000000,,2013-01-19 17:45:00,
2013-01-19 07:53:00,64.0,58.0,-100.00,NW,322,10.0,23.0,80,0.00,,,0.00,0.000000,,2013-01-19 17:53:00,
2013-01-19 08:25:00,64.0,56.0,-100.00,NW,318,9.0,24.0,76,0.00,,,0.00,18.000000,,2013-01-19 18:25:00,
2013-01-19 08:34:00,64.0,56.0,-100.00,NW,318,9.0,24.0,76,0.00,,,0.00,18.000000,,2013-01-19 18:34:00,
2013-01-19 08:44:00,64.0,56.0,-100.00,NW,318,9.0,24.0,76,0.00,,,0.00,18.000000,,2013-01-19 18:44:00,
2013-01-19 08:53:00,64.0,56.0,-100.00,NW,318,9.0,24.0,76,0.00,,,0.00,18.000000,,2013-01-19 18:53:00,
2013-01-19 09:37:00,67.0,56.0,-100.00,NW,325,10.0,22.0,67,0.00,,,0.00,138.000000,,2013-01-19 19:37:00,
2013-01-19 09:44:00,67.0,56.0,-100.00,NW,325,10.0,22.0,67,0.00,,,0.00,138.000000,,2013-01-19 19:44:00,
2013-01-19 09:54:00,67.0,56.0,-100.00,NW,325,10.0,22.0,67,0.00,,,0.00,138.000000,,2013-01-19 19:54:00,
2013-01-19 10:24:00,69.0,59.0,-100.00,NNW,339,11.0,25.0,71,0.00,,,0.00,355.000000,,2013-01-19 20:24:00,
2013-01-19 10:36:00,69.0,59.0,-100.00,NNW,339,11.0,25.0,71,0.00,,,0.00,355.000000,,2013-01-19 20:36:00,
2013-01-19 10:44:00,69.0,59.0,-100.00,NNW,339,11.0,25.0,71,0.00,,,0.00,355.000000,,2013-01-19 20:44:00,
2013-01-19 10:53:00,69.0,59.0,-100.00,NNW,339,11.0,25.0,71,0.00,,,0.00,355.000000,,2013-01-19 20:53:00,
2013-01-19 11:24:00,70.0,55.0,-100.00,NNW,331,11.0,25.0,59,0.00,,,0.00,578.000000,,2013-01-19 21:24:00,
2013-01-19 11:39:00,70.0,55.0,-100.00,NNW,331,11.0,25.0,59,0.00,,,0.00,578.000000,,2013-01-19 21:39:00,
2013-01-19 11:47:00,70.0,55.0,-100.00,NNW,331,11.0,25.0,59,0.00,,,0.00,578.000000,,2013-01-19 21:47:00,
2013-01-19 11:54:00,70.0,55.0,-100.00,NNW,331,11.0,25.0,59,0.00,,,0.00,578.000000,,2013-01-19 21:54:00,
2013-01-19 12:25:00,72.0,60.0,-100.00,NW,320,11.0,26.0,66,0.00,,,0.00,730.000000,,2013-01-19 22:25:00,
2013-01-19 12:34:00,72.0,60.0,-100.00,NW,320,11.0,26.0,66,0.00,,,0.00,730.000000,,2013-01-19 22:34:00,
2013-01-19 12:45:00,72.0,60.0,-100.00,NW,320,11.0,26.0,66,0.00,,,0.00,730.000000,,2013-01-19 22:45:00,
2013-01-19 12:54:00,72.0,60.0,-100.00,NW,320,11.0,26.0,66,0.00,,,0.00,730.000000,,2013-01-19 22:54:00,
2013-01-19 12:57:00,71.0,60.0,-100.00,NW,324,10.0,29.0,68,0.00,,,0.00,812.000000,,2013-01-19 22:57:00,
2013-01-19 13:24:00,71.0,60.0,-100.00,NW,324,10.0,29.0,68,0.00,,,0.00,812.000000,,2013-01-19 23:24:00,
2013-01-19 13:34:00,71.0,60.0,-100.00,NW,324,10.0,29.0,68,0.00,,,0.00,812.000000,,2013-01-19 23:34:00,
2013-01-19 13:44:00,71.0,60.0,-100.00,NW,324,10.0,29.0,68,0.00,,,0.00,812.000000,,2013-01-19 23:44:00,
2013-01-19 14:24:00,72.0,62.0,-100.00,NW,325,11.0,30.0,71,0.00,,,0.00,818.000000,,2013-01-20 00:24:00,
2013-01-19 14:34:00,72.0,62.0,-100.00,NW,325,11.0,30.0,71,0.00,,,0.00,818.000000,,2013-01-20 00:34:00,
2013-01-19 14:45:00,72.0,62.0,-100.00,NW,325,11.0,30.0,71,0.00,,,0.00,818.000000,,2013-01-20 00:45:00,
2013-01-19 14:53:00,72.0,62.0,-100.00,NW,325,11.0,30.0,71,0.00,,,0.00,818.000000,,2013-01-20 00:53:00,
2013-01-19 15:35:00,69.0,61.0,-100.00,NW,324,12.0,26.0,75,0.00,,,0.00,604.000000,,2013-01-20 01:35:00,
2013-01-19 15:45:00,69.0,61.0,-100.00,NW,324,12.0,26.0,75,0.00,,,0.00,604.000000,,2013-01-20 01:45:00,
2013-01-19 15:54:00,69.0,61.0,-100.00,NW,324,12.0,26.0,75,0.00,,,0.00,604.000000,,2013-01-20 01:54:00,
2013-01-19 16:25:00,68.0,59.0,-100.00,NNW,327,12.0,25.0,72,0.00,,,-99.99,472.000000,,2013-01-20 02:25:00,
2013-01-19 16:34:00,68.0,59.0,-100.00,NNW,327,12.0,25.0,72,0.00,,,-99.99,472.000000,,2013-01-20 02:34:00,
2013-01-19 16:43:00,68.0,59.0,-100.00,NNW,327,12.0,25.0,72,0.00,,,-99.99,472.000000,,2013-01-20 02:43:00,
2013-01-19 16:54:00,68.0,59.0,-100.00,NNW,327,12.0,25.0,72,0.00,,,-99.99,472.000000,,2013-01-20 02:54:00,
2013-01-19 17:24:00,69.0,60.0,-100.00,NNW,329,10.0,23.0,74,0.00,,,0.00,467.000000,,2013-01-20 03:24:00,
2013-01-19 17:36:00,69.0,60.0,-100.00,NNW,329,10.0,23.0,74,0.00,,,0.00,467.000000,,2013-01-20 03:36:00,
2013-01-19 17:44:00,69.0,60.0,-100.00,NNW,329,10.0,23.0,74,0.00,,,0.00,467.000000,,2013-01-20 03:44:00,
2013-01-19 17:53:00,69.0,60.0,-100.00,NNW,329,10.0,23.0,74,0.00,,,0.00,467.000000,,2013-01-20 03:53:00,
2013-01-19 18:24:00,67.0,60.0,-100.00,NNW,328,10.0,23.0,79,0.00,,,0.00,232.000000,,2013-01-20 04:24:00,
2013-01-19 18:34:00,67.0,60.0,-100.00,NNW,328,10.0,23.0,79,0.00,,,0.00,232.000000,,2013-01-20 04:34:00,
2013-01-19 18:43:00,67.0,60.0,-100.00,NNW,328,10.0,23.0,79,0.00,,,0.00,232.000000,,2013-01-20 04:43:00,
2013-01-19 18:53:00,67.0,60.0,-100.00,NNW,328,10.0,23.0,79,0.00,,,0.00,232.000000,,2013-01-20 04:53:00,
2013-01-19 19:22:00,64.0,57.0,-100.00,NNW,331,8.0,22.0,79,0.00,,,0.00,6.000000,,2013-01-20 05:22:00,
2013-01-19 19:32:00,64.0,57.0,-100.00,NNW,331,8.0,22.0,79,0.00,,,0.00,6.000000,,2013-01-20 05:32:00,
2013-01-19 19:42:00,64.0,57.0,-100.00,NNW,331,8.0,22.0,79,0.00,,,0.00,6.000000,,2013-01-20 05:42:00,
2013-01-19 19:52:00,64.0,57.0,-100.00,NNW,331,8.0,22.0,79,0.00,,,0.00,6.000000,,2013-01-20 05:52:00,
2013-01-19 20:22:00,65.0,59.0,-100.00,NNW,338,8.0,19.0,80,0.00,,,0.00,0.000000,,2013-01-20 06:22:00,
2013-01-19 20:33:00,65.0,59.0,-100.00,NNW,338,8.0,19.0,80,0.00,,,0.00,0.000000,,2013-01-20 06:33:00,
2013-01-19 20:42:00,65.0,59.0,-100.00,NNW,338,8.0,19.0,80,0.00,,,0.00,0.000000,,2013-01-20 06:42:00,
2013-01-19 20:52:00,65.0,59.0,-100.00,NNW,338,8.0,19.0,80,0.00,,,0.00,0.000000,,2013-01-20 06:52:00,
2013-01-19 21:22:00,65.0,59.0,-100.00,NNW,343,6.0,16.0,82,0.00,,,0.00,0.000000,,2013-01-20 07:22:00,
2013-01-19 21:32:00,65.0,59.0,-100.00,NNW,343,6.0,16.0,82,0.00,,,0.00,0.000000,,2013-01-20 07:32:00,
2013-01-19 21:42:00,65.0,59.0,-100.00,NNW,343,6.0,16.0,82,0.00,,,0.00,0.000000,,2013-01-20 07:42:00,
2013-01-19 21:52:00,65.0,59.0,-100.00,NNW,343,6.0,16.0,82,0.00,,,0.00,0.000000,,2013-01-20 07:52:00,
2013-01-19 22:22:00,65.0,62.0,-100.00,NNW,337,5.0,14.0,90,0.00,,,0.00,0.000000,,2013-01-20 08:22:00,
2013-01-19 22:32:00,65.0,62.0,-100.00,NNW,337,5.0,14.0,90,0.00,,,0.00,0.000000,,2013-01-20 08:32:00,
2013-01-19 22:42:00,65.0,62.0,-100.00,NNW,337,5.0,14.0,90,0.00,,,0.00,0.000000,,2013-01-20 08:42:00,
2013-01-19 22:52:00,65.0,62.0,-100.00,NNW,337,5.0,14.0,90,0.00,,,0.00,0.000000,,2013-01-20 08:52:00,
2013-01-19 23:22:00,63.0,60.0,-100.00,NNW,338,6.0,17.0,89,0.00,,,0.00,0.000000,,2013-01-20 09:22:00,
2013-01-19 23:33:00,63.0,60.0,-100.00,NNW,338,6.0,17.0,89,0.00,,,0.00,0.000000,,2013-01-20 09:33:00,
2013-01-19 23:42:00,63.0,60.0,-100.00,NNW,338,6.0,17.0,89,0.00,,,0.00,0.000000,,2013-01-20 09:42:00,
2013-01-19 23:52:00,63.0,60.0,-100.00,NNW,338,6.0,17.0,89,0.00,,,0.00,0.000000,,2013-01-20 09:52:00,